EW0626 Weather Reports


Display with metric or nautical units.
time (UTC)temp
F
wind
direction
speed
MPH
gust
MPH
rain 1hr
in
rain 24hr
in
rain mn
in
humidity
%
barometer
mb
20240621224035 91 1 1.0 3.0 0.00 0.00 0.00 62 1003.4
20240621223533 91 7 1.0 3.0 0.00 0.00 0.00 61 1003.4
20240621223035 91 5 1.0 3.0 0.00 0.00 0.00 63 1003.5
20240621222531 90 6 0.0 1.0 0.00 0.00 0.00 67 1003.5
20240621222038 89 31 0.0 1.0 0.00 0.00 0.00 66 1003.7
20240621222032 90 31 0.0 1.0 0.00 0.00 0.00 66 1003.6
20240621221032 89 31 0.0 3.0 0.00 0.00 0.00 66 1003.7
20240621220531 89 32 1.0 3.0 0.00 0.00 0.00 66 1003.7
20240621220304 89 24 1.0 2.0 0.00 0.00 0.00 65 1003.8
20240621215532 89 19 1.0 4.0 0.00 0.00 0.00 67 1003.7
20240621215028 89 38 2.0 4.0 0.00 0.00 0.00 65 1003.8
20240621214526 89 354 2.0 4.0 0.00 0.00 0.00 65 1003.8
20240621214258 89 352 3.0 4.0 0.00 0.00 0.00 66 1003.9
20240621213527 89 356 3.0 5.0 0.00 0.00 0.00 68 1003.9
20240621213028 89 354 4.0 6.0 0.00 0.00 0.00 63 1003.9
20240621212522 91 10 3.0 6.0 0.00 0.00 0.00 63 1004.0
20240621212020 92 14 2.0 4.0 0.00 0.00 0.00 64 1004.0
20240621211752 92 15 1.0 4.0 0.00 0.00 0.00 63 1004.0
20240621211251 92 339 1.0 3.0 0.00 0.00 0.00 59 1004.1
20240621210518 92 292 1.0 3.0 0.00 0.00 0.00 58 1004.2
20240621210015 92 245 1.0 2.0 0.00 0.00 0.00 60 1004.1
20240621205517 91 253 1.0 3.0 0.00 0.00 0.00 58 1004.2
20240621205017 91 298 2.0 4.0 0.00 0.00 0.00 59 1004.2
20240621204747 91 288 2.0 4.0 0.00 0.00 0.00 60 1004.2
20240621204016 91 294 1.0 3.0 0.00 0.00 0.00 58 1004.2
20240621203513 91 307 1.0 2.0 0.00 0.00 0.00 61 1004.3
20240621203247 91 290 1.0 2.0 0.00 0.00 0.00 58 1004.4
20240621203147 91 292 1.0 2.0 0.00 0.00 0.00 59 1004.3
20240621202245 92 295 1.0 3.0 0.00 0.00 0.00 61 1004.5
20240621201511 92 303 1.0 3.0 0.00 0.00 0.00 61 1004.4
20240621201011 93 301 2.0 4.0 0.00 0.00 0.00 57 1004.4
20240621200740 93 213 2.0 4.0 0.00 0.00 0.00 55 1004.5
20240621200011 93 262 1.0 4.0 0.00 0.00 0.00 56 1004.6
20240621195510 93 342 1.0 3.0 0.00 0.00 0.00 58 1004.7
20240621195010 92 28 2.0 5.0 0.00 0.00 0.00 56 1004.7
20240621194510 92 118 2.0 5.0 0.00 0.00 0.00 56 1004.7
20240621194240 92 30 2.0 6.0 0.00 0.00 0.00 56 1004.8
20240621193510 92 234 2.0 6.0 0.00 0.00 0.00 56 1004.9
20240621193010 92 102 2.0 6.0 0.00 0.00 0.00 57 1005.1
20240621192509 91 230 3.0 6.0 0.00 0.00 0.00 58 1005.2
20240621192010 91 297 3.0 5.0 0.00 0.00 0.00 58 1005.3
20240621191510 92 246 3.0 5.0 0.00 0.00 0.00 60 1005.4
20240621191009 92 245 2.0 6.0 0.00 0.00 0.00 59 1005.4
20240621190511 93 287 3.0 7.0 0.00 0.00 0.00 56 1005.4
20240621190010 93 275 3.0 9.0 0.00 0.00 0.00 56 1005.5
20240621185509 94 210 2.0 9.0 0.00 0.00 0.00 56 1005.5
20240621185004 94 280 2.0 4.0 0.00 0.00 0.00 57 1005.6
20240621184455 94 301 1.0 4.0 0.00 0.00 0.00 52 1005.7
20240621183955 94 168 1.0 5.0 0.00 0.00 0.00 56 1005.8
20240621183455 93 188 2.0 5.0 0.00 0.00 0.00 59 1006.0
20240621182950 92 250 2.0 5.0 0.00 0.00 0.00 59 1005.9
20240621182450 92 258 2.0 6.0 0.00 0.00 0.00 56 1006.0
20240621181950 92 322 2.0 6.0 0.00 0.00 0.00 58 1006.0
20240621181457 91 226 4.0 7.0 0.00 0.00 0.00 58 1006.2
20240621181449 92 281 2.0 7.0 0.00 0.00 0.00 56 1006.1
20240621181122 91 286 5.0 8.0 0.00 0.00 0.00 61 1006.3
20240621175945 91 249 5.0 8.0 0.00 0.00 0.00 60 1006.3
20240621175445 92 260 3.0 8.0 0.00 0.00 0.00 60 1006.2
20240621174944 94 270 1.0 6.0 0.00 0.00 0.00 58 1006.4
20240621174444 94 73 1.0 4.0 0.00 0.00 0.00 52 1006.4
20240621174216 94 165 1.0 4.0 0.00 0.00 0.00 55 1006.5
20240621173441 93 233 1.0 4.0 0.00 0.00 0.00 50 1006.6
20240621172941 93 255 1.0 3.0 0.00 0.00 0.00 55 1006.5
20240621172712 92 168 2.0 4.0 0.00 0.00 0.00 54 1006.7
20240621171940 92 229 2.0 5.0 0.00 0.00 0.00 55 1006.7
20240621171435 92 184 2.0 5.0 0.00 0.00 0.00 56 1006.7
20240621170927 92 160 2.0 6.0 0.00 0.00 0.00 56 1006.8
20240621170651 92 190 2.0 6.0 0.00 0.00 0.00 59 1006.9
20240621170146 92 141 2.0 9.0 0.00 0.00 0.00 58 1006.9
20240621165640 91 224 3.0 9.0 0.00 0.00 0.00 56 1006.9
20240621164903 92 238 3.0 6.0 0.00 0.00 0.00 56 1007.0
20240621164357 91 250 1.0 5.0 0.00 0.00 0.00 60 1007.0
20240621163851 90 208 1.0 2.0 0.00 0.00 0.00 63 1007.1
20240621163344 90 214 1.0 2.0 0.00 0.00 0.00 62 1007.2
20240621162839 90 326 1.0 4.0 0.00 0.00 0.00 61 1007.1
20240621162333 90 280 2.0 4.0 0.00 0.00 0.00 63 1007.2
20240621161827 90 281 2.0 5.0 0.00 0.00 0.00 58 1007.2
20240621161321 91 186 2.0 5.0 0.00 0.00 0.00 63 1007.3
20240621160815 90 301 3.0 6.0 0.00 0.00 0.00 62 1007.3
20240621160308 90 251 2.0 6.0 0.00 0.00 0.00 60 1007.3
20240621155803 90 229 2.0 5.0 0.00 0.00 0.00 64 1007.3
20240621155528 91 106 2.0 5.0 0.00 0.00 0.00 62 1007.3
20240621154749 91 168 2.0 5.0 0.00 0.00 0.00 65 1007.3
20240621154516 91 161 1.0 5.0 0.00 0.00 0.00 65 1007.4
20240621154009 90 153 1.0 3.0 0.00 0.00 0.00 67 1007.4
20240621153504 90 125 1.0 4.0 0.00 0.00 0.00 67 1007.4
20240621152727 89 243 2.0 4.0 0.00 0.00 0.00 67 1007.4
20240621152221 89 135 1.0 4.0 0.00 0.00 0.00 67 1007.4
20240621151714 89 136 1.0 3.0 0.00 0.00 0.00 70 1007.4
20240621151212 88 165 1.0 5.0 0.00 0.00 0.00 69 1007.5
20240621151205 87 129 2.0 5.0 0.00 0.00 0.00 68 1007.4
20240621150155 87 117 2.0 5.0 0.00 0.00 0.00 71 1007.5
20240621145647 87 103 2.0 5.0 0.00 0.00 0.00 69 1007.4
20240621145143 87 89 1.0 5.0 0.00 0.00 0.00 69 1007.4
20240621144910 87 86 1.0 4.0 0.00 0.00 0.00 68 1007.4
20240621144130 87 108 1.0 4.0 0.00 0.00 0.00 69 1007.5
20240621143624 87 82 1.0 4.0 0.00 0.00 0.00 71 1007.5
20240621143350 87 167 1.0 4.0 0.00 0.00 0.00 71 1007.4
20240621142843 86 155 1.0 3.0 0.00 0.00 0.00 72 1007.5
20240621142105 86 128 1.0 3.0 0.00 0.00 0.00 72 1007.4
20240621141600 85 95 1.0 3.0 0.00 0.00 0.00 74 1007.4
20240621141055 84 121 0.0 2.0 0.00 0.00 0.00 76 1007.5
20240621140549 83 89 0.0 1.0 0.00 0.00 0.00 76 1007.6
20240621140043 83 102 0.0 2.0 0.00 0.00 0.00 77 1007.7
20240621135537 82 133 0.0 2.0 0.00 0.00 0.00 77 1007.7
20240621135031 82 116 1.0 3.0 0.00 0.00 0.00 77 1007.8
20240621134523 83 120 1.0 3.0 0.00 0.00 0.00 77 1007.7
20240621134019 83 142 0.0 2.0 0.00 0.00 0.00 78 1007.7
20240621133512 83 131 0.0 1.0 0.00 0.00 0.00 78 1007.7
20240621133238 83 133 0.0 1.0 0.00 0.00 0.00 79 1007.7
20240621132501 82 135 0.0 2.0 0.00 0.00 0.00 79 1007.6
20240621131955 82 128 0.0 2.0 0.00 0.00 0.00 78 1007.6
20240621131720 82 108 1.0 3.0 0.00 0.00 0.00 78 1007.6
20240621131220 82 103 1.0 3.0 0.00 0.00 0.00 79 1007.5
20240621130453 81 100 2.0 4.0 0.00 0.00 0.00 79 1007.5
20240621130448 82 127 1.0 4.0 0.00 0.00 0.00 78 1007.6
20240621125444 81 131 2.0 4.0 0.00 0.00 0.00 80 1007.4
20240621125217 81 132 1.0 4.0 0.00 0.00 0.00 79 1007.5
20240621124446 81 140 0.0 4.0 0.00 0.00 0.00 81 1007.4
20240621123946 80 107 0.0 0.0 0.00 0.00 0.00 84 1007.4
20240621123444 80 110 0.0 0.0 0.00 0.00 0.00 87 1007.5
20240621122944 79 112 0.0 0.0 0.00 0.00 0.00 90 1007.5
20240621122447 78 113 0.0 0.0 0.00 0.00 0.00 92 1007.5
20240621121945 77 113 0.0 0.0 0.00 0.00 0.00 96 1007.5
20240621121443 76 113 0.0 0.0 0.00 0.00 0.00 97 1007.6
20240621121214 74 113 0.0 0.0 0.00 0.00 0.00 98 1007.6
20240621121111 73 113 0.0 0.0 0.00 0.00 0.00 97 1007.5
20240621115938 72 113 0.0 0.0 0.00 0.00 0.00 98 1007.5
20240621115436 72 113 0.0 0.0 0.00 0.00 0.00 99 1007.4
20240621114933 71 113 0.0 0.0 0.00 0.00 0.00 99 1007.4
20240621114705 70 113 0.0 0.0 0.00 0.00 0.00 99 1007.4
20240621114204 70 113 0.0 0.0 0.00 0.00 0.00 99 1007.4
20240621113433 69 113 0.0 0.0 0.00 0.00 0.00 98 1007.5
20240621112939 68 113 0.0 0.0 0.00 0.00 0.00 98 1007.4
20240621112931 69 113 0.0 0.0 0.00 0.00 0.00 98 1007.5
20240621112558 68 113 0.0 0.0 0.00 0.00 0.00 98 1007.4
20240621111428 68 113 0.0 0.0 0.00 0.00 0.00 97 1007.3
20240621110930 68 113 0.0 0.0 0.00 0.00 0.00 98 1007.3
20240621110430 68 113 0.0 0.0 0.00 0.00 0.00 98 1007.2
20240621105925 68 113 0.0 0.0 0.00 0.00 0.00 98 1007.2
20240621105426 68 113 0.0 0.0 0.00 0.00 0.00 98 1007.1
20240621105156 68 113 0.0 0.0 0.00 0.00 0.00 97 1007.3
20240621104427 68 113 0.0 0.0 0.00 0.00 0.00 97 1007.3
20240621103924 68 113 0.0 0.0 0.00 0.00 0.00 97 1007.3
20240621103424 68 113 0.0 0.0 0.00 0.00 0.00 97 1007.2
20240621102925 68 113 0.0 0.0 0.00 0.00 0.00 97 1007.2
20240621102657 68 113 0.0 0.0 0.00 0.00 0.00 97 1007.1
20240621102157 68 113 0.0 0.0 0.00 0.00 0.00 98 1007.0
20240621101421 68 113 0.0 0.0 0.00 0.00 0.00 98 1007.0
20240621100920 68 113 0.0 0.0 0.00 0.00 0.00 97 1006.9
20240621100423 68 113 0.0 0.0 0.00 0.00 0.00 97 1006.9
20240621095921 68 113 0.0 0.0 0.00 0.00 0.00 97 1006.9
20240621095655 68 113 0.0 0.0 0.00 0.00 0.00 97 1006.8
20240621095149 68 113 0.0 0.0 0.00 0.00 0.00 97 1006.9
20240621094418 68 113 0.0 0.0 0.00 0.00 0.00 97 1006.7
20240621093915 68 113 0.0 0.0 0.00 0.00 0.00 97 1006.8
20240621093648 68 113 0.0 0.0 0.00 0.00 0.00 97 1006.8
20240621092912 68 113 0.0 0.0 0.00 0.00 0.00 97 1006.8
20240621092411 68 114 0.0 0.0 0.00 0.00 0.00 97 1006.8
20240621091908 68 113 0.0 0.0 0.00 0.00 0.00 97 1006.8
20240621091408 69 113 0.0 0.0 0.00 0.00 0.00 97 1006.7
20240621091134 69 113 0.0 0.0 0.00 0.00 0.00 97 1006.7
20240621090356 69 113 0.0 0.0 0.00 0.00 0.00 97 1006.7
20240621085850 69 113 0.0 0.0 0.00 0.00 0.00 97 1006.6
20240621085614 69 114 0.0 0.0 0.00 0.00 0.00 97 1006.7
20240621084838 69 113 0.0 0.0 0.00 0.00 0.00 97 1006.7
20240621084332 69 113 0.0 0.0 0.00 0.00 0.00 97 1006.7
20240621083825 69 113 0.0 0.0 0.00 0.00 0.00 97 1006.6
20240621083320 69 113 0.0 0.0 0.00 0.00 0.00 97 1006.6
20240621082816 69 113 0.0 0.0 0.00 0.00 0.00 97 1006.5
20240621082810 69 113 0.0 0.0 0.00 0.00 0.00 96 1006.6
20240621081801 69 113 0.0 0.0 0.00 0.00 0.00 96 1006.5
20240621081527 69 113 0.0 0.0 0.00 0.00 0.00 96 1006.5
20240621080749 69 113 0.0 0.0 0.00 0.00 0.00 96 1006.5
20240621080244 70 113 0.0 0.0 0.00 0.00 0.00 96 1006.4
20240621075737 70 113 0.0 0.0 0.00 0.00 0.00 97 1006.4
20240621075231 70 113 0.0 0.0 0.00 0.00 0.00 97 1006.3
20240621074726 70 113 0.0 0.0 0.00 0.00 0.00 97 1006.3
20240621074220 70 113 0.0 0.0 0.00 0.00 0.00 96 1006.5
20240621073945 70 113 0.0 0.0 0.00 0.00 0.00 96 1006.4
20240621073208 70 113 0.0 0.0 0.00 0.00 0.00 96 1006.5
20240621072702 70 113 0.0 0.0 0.00 0.00 0.00 96 1006.5
20240621072155 70 113 0.0 0.0 0.00 0.00 0.00 96 1006.5
20240621071649 70 113 0.0 0.0 0.00 0.00 0.00 96 1006.5
20240621071145 70 113 0.0 0.0 0.00 0.00 0.00 96 1006.5
20240621070639 70 113 0.0 0.0 0.00 0.00 0.00 96 1006.5
20240621070403 70 113 0.0 0.0 0.00 0.00 0.00 96 1006.5
20240621065626 70 113 0.0 0.0 0.00 0.00 0.00 96 1006.6
20240621065120 70 113 0.0 0.0 0.00 0.00 0.00 96 1006.6
20240621064846 70 113 0.0 0.0 0.00 0.00 0.00 96 1006.7
20240621064337 70 113 0.0 0.0 0.00 0.00 0.00 96 1006.7
20240621064211 70 113 0.0 0.0 0.00 0.00 0.00 96 1006.7
20240621063056 70 113 0.0 0.0 0.00 0.00 0.00 96 1006.7
20240621062550 70 113 0.0 0.0 0.00 0.00 0.00 95 1006.8
20240621062044 70 113 0.0 0.0 0.00 0.00 0.00 95 1006.9
20240621061538 71 113 0.0 0.0 0.00 0.00 0.00 95 1006.8
20240621061303 71 113 0.0 0.0 0.00 0.00 0.00 95 1006.8
20240621060757 71 113 0.0 0.0 0.00 0.00 0.00 96 1006.8
20240621060021 71 113 0.0 0.0 0.00 0.00 0.00 95 1006.8
20240621055523 71 113 0.0 0.0 0.00 0.00 0.00 95 1006.8
20240621055021 71 113 0.0 0.0 0.00 0.00 0.00 95 1006.7
20240621054518 71 113 0.0 0.0 0.00 0.00 0.00 95 1006.8
20240621054017 71 113 0.0 0.0 0.00 0.00 0.00 95 1006.9
20240621053514 71 113 0.0 0.0 0.00 0.00 0.00 95 1007.0
20240621053012 71 113 0.0 0.0 0.00 0.00 0.00 95 1006.9
20240621052512 71 113 0.0 0.0 0.00 0.00 0.00 95 1007.0
20240621052013 71 113 0.0 0.0 0.00 0.00 0.00 94 1006.9
20240621051509 71 113 0.0 0.0 0.00 0.00 0.00 94 1006.9
20240621051008 71 113 0.0 0.0 0.00 0.00 0.00 94 1006.9
20240621050507 71 113 0.0 0.0 0.00 0.00 0.00 94 1006.9
20240621050005 72 113 0.0 0.0 0.00 0.00 0.00 94 1006.9
20240621045505 72 113 0.0 0.0 0.00 0.00 0.00 93 1006.9
20240621045005 72 113 0.0 0.0 0.00 0.00 0.00 93 1007.0
20240621044505 72 113 0.0 0.0 0.00 0.00 0.00 94 1007.0
20240621044004 73 113 0.0 0.0 0.00 0.00 0.00 94 1007.0
20240621043503 73 113 0.0 0.0 0.00 0.00 0.00 94 1007.0
20240621043000 73 113 0.0 0.0 0.00 0.00 0.00 94 1006.9
20240621042500 73 113 0.0 0.0 0.00 0.00 0.00 94 1006.9
20240621042000 72 113 0.0 0.0 0.00 0.00 0.00 94 1007.0
20240621041500 72 113 0.0 0.0 0.00 0.00 0.00 93 1006.9
20240621041009 73 113 0.0 0.0 0.00 0.00 0.00 93 1007.0
20240621041003 72 113 0.0 0.0 0.00 0.00 0.00 93 1006.9
20240621040000 73 113 0.0 0.0 0.00 0.00 0.00 93 1007.0
20240621035503 73 113 0.0 0.0 0.00 0.00 0.00 93 1007.0
20240621035003 73 113 0.0 0.0 0.00 0.00 0.00 92 1007.0
20240621034503 73 113 0.0 0.0 0.00 0.00 0.00 92 1006.9
20240621034003 73 113 0.0 0.0 0.00 0.00 0.00 92 1006.9
20240621033501 73 113 0.0 0.0 0.00 0.00 0.00 92 1006.9
20240621033004 73 113 0.0 0.0 0.00 0.00 0.00 92 1006.9
20240621032501 73 113 0.0 0.0 0.00 0.00 0.00 92 1006.9
20240621032003 73 113 0.0 0.0 0.00 0.00 0.00 91 1006.9
20240621031502 74 113 0.0 0.0 0.00 0.00 0.00 91 1006.9
20240621031003 74 113 0.0 0.0 0.00 0.00 0.00 90 1006.9
20240621030732 74 113 0.0 0.0 0.00 0.00 0.00 90 1006.9
20240621030000 74 113 0.0 0.0 0.00 0.00 0.00 90 1006.9
20240621024955 75 113 0.0 0.0 0.00 0.00 0.00 90 1006.9
20240621024456 75 113 0.0 0.0 0.00 0.00 0.00 89 1007.0
20240621023956 76 113 0.0 0.0 0.00 0.00 0.00 89 1006.9
20240621023726 76 113 0.0 0.0 0.00 0.00 0.00 89 1006.8
20240621023221 76 113 0.0 0.0 0.00 0.00 0.00 89 1006.8
20240621022446 76 113 0.0 0.0 0.00 0.00 0.00 88 1006.7
20240621021947 77 113 0.0 0.0 0.00 0.00 0.00 88 1006.7
20240621021719 77 113 0.0 0.0 0.00 0.00 0.00 88 1006.8
20240621021209 77 110 0.0 0.0 0.00 0.00 0.00 88 1006.6
20240621021045 77 113 0.0 0.0 0.00 0.00 0.00 88 1006.7
20240621015930 78 111 0.0 0.0 0.00 0.00 0.00 88 1006.6
20240621015424 78 81 0.0 0.0 0.00 0.00 0.00 87 1006.6
20240621015149 78 321 0.0 0.0 0.00 0.00 0.00 85 1006.5
20240621014412 79 321 0.0 0.0 0.00 0.00 0.00 84 1006.5
20240621013905 80 321 0.0 0.0 0.00 0.00 0.00 83 1006.6
20240621013631 80 321 0.0 0.0 0.00 0.00 0.00 82 1006.6
20240621012853 81 321 0.0 0.0 0.00 0.00 0.00 80 1006.5
20240621012618 82 320 0.0 0.0 0.00 0.00 0.00 79 1006.6
20240621011842 83 321 0.0 0.0 0.00 0.00 0.00 78 1006.6
20240621011335 83 321 0.0 0.0 0.00 0.00 0.00 76 1006.6
20240621010830 85 321 0.0 0.0 0.00 0.00 0.00 74 1006.5
20240621010324 86 320 0.0 0.0 0.00 0.00 0.00 73 1006.6
20240621005818 87 287 0.0 0.0 0.00 0.00 0.00 70 1006.5
20240621005311 88 287 0.0 0.0 0.00 0.00 0.00 70 1006.5
20240621005038 88 287 0.0 0.0 0.00 0.00 0.00 71 1006.5
20240621004300 88 287 0.0 0.0 0.00 0.00 0.00 72 1006.6
20240621003246 89 287 0.0 0.0 0.00 0.00 0.00 68 1006.5
20240621003014 89 287 0.0 0.0 0.00 0.00 0.00 67 1006.6
20240621002236 89 287 0.0 0.0 0.00 0.00 0.00 66 1006.5
20240621001733 89 287 0.0 0.0 0.00 0.00 0.00 70 1006.5
20240621001726 89 287 0.0 0.0 0.00 0.00 0.00 69 1006.6
20240621000718 89 287 0.0 0.0 0.00 0.00 0.00 67 1006.6
20240621000212 90 287 0.0 0.0 0.00 0.00 0.00 60 1006.6
20240620235706 91 287 0.0 0.0 0.00 0.00 0.00 62 1006.5
20240620235200 92 287 0.0 0.0 0.00 0.00 0.00 58 1006.5
20240620234654 93 287 0.0 0.0 0.00 0.00 0.00 56 1006.5
20240620234148 92 286 0.0 1.0 0.00 0.00 0.00 57 1006.5
20240620233642 92 286 0.0 1.0 0.00 0.00 0.00 58 1006.5
20240620233407 92 290 0.0 1.0 0.00 0.00 0.00 56 1006.5
20240620232629 92 278 0.0 2.0 0.00 0.00 0.00 58 1006.4
20240620232123 92 274 0.0 2.0 0.00 0.00 0.00 56 1006.6
20240620231616 92 240 1.0 2.0 0.00 0.00 0.00 55 1006.6
20240620231343 91 226 1.0 2.0 0.00 0.00 0.00 58 1006.7
20240620230606 91 290 1.0 2.0 0.00 0.00 0.00 58 1006.7
20240620230059 91 271 1.0 3.0 0.00 0.00 0.00 57 1006.6
20240620225554 92 286 1.0 3.0 0.00 0.00 0.00 55 1006.7
20240620225048 91 256 1.0 4.0 0.00 0.00 0.00 57 1006.7
20240620224542 91 273 1.0 4.0 0.00 0.00 0.00 57 1006.7